TimeCST,TemperatureF,Dew PointF,Humidity,Sea Level PressureIn,VisibilityMPH,Wind Direction,Wind SpeedMPH,Gust SpeedMPH,PrecipitationIn,Events,Conditions,WindDirDegrees,DateUTC
12:15 AM,77.0,73.4,89,29.97,5.0,WNW,4.6,-,N/A,,Mostly Cloudy,300,2013-11-19 06:15:00
12:35 AM,77.0,73.4,89,29.98,4.0,Variable,4.6,12.7,N/A,,Overcast,0,2013-11-19 06:35:00
12:45 AM,75.2,71.6,89,29.96,2.0,North,9.2,16.1,N/A,,Overcast,350,2013-11-19 06:45:00
1:35 AM,71.6,69.8,94,29.96,1.0,NNE,17.3,-,N/A,,Overcast,30,2013-11-19 07:35:00
1:55 AM,73.4,71.6,94,29.96,4.0,NNE,11.5,23.0,N/A,,Overcast,30,2013-11-19 07:55:00
2:15 AM,73.4,71.6,94,29.96,8.0,NNE,16.1,24.2,N/A,,Overcast,30,2013-11-19 08:15:00
2:35 AM,73.4,71.6,94,29.96,8.0,NE,16.1,-,N/A,,Overcast,40,2013-11-19 08:35:00
2:55 AM,73.4,71.6,94,29.96,10.0,NE,13.8,-,N/A,,Overcast,40,2013-11-19 08:55:00
3:15 AM,73.4,71.6,94,29.95,10.0,NNE,13.8,-,N/A,,Scattered Clouds,30,2013-11-19 09:15:00
3:35 AM,75.2,71.6,89,29.95,10.0,NNE,9.2,16.1,N/A,,Scattered Clouds,20,2013-11-19 09:35:00
3:55 AM,75.2,73.4,94,29.94,10.0,NNE,12.7,20.7,N/A,,Mostly Cloudy,20,2013-11-19 09:55:00
4:15 AM,75.2,73.4,94,29.94,10.0,NNE,15.0,-,N/A,,Scattered Clouds,30,2013-11-19 10:15:00
4:35 AM,75.2,73.4,94,29.94,10.0,NNE,16.1,-,N/A,,Mostly Cloudy,30,2013-11-19 10:35:00
4:55 AM,77.0,73.4,89,29.94,9.0,NNE,15.0,-,N/A,,Overcast,30,2013-11-19 10:55:00
5:15 AM,75.2,71.6,89,29.94,10.0,NNE,17.3,-,N/A,,Mostly Cloudy,30,2013-11-19 11:15:00
5:35 AM,75.2,71.6,89,29.94,9.0,NNE,19.6,-,N/A,,Mostly Cloudy,30,2013-11-19 11:35:00
5:55 AM,75.2,71.6,89,29.94,9.0,NNE,18.4,-,N/A,,Mostly Cloudy,30,2013-11-19 11:55:00
6:15 AM,75.2,71.6,89,29.95,8.0,NNE,18.4,26.5,N/A,,Mostly Cloudy,30,2013-11-19 12:15:00
6:35 AM,75.2,71.6,89,29.96,9.0,NE,20.7,-,N/A,,Mostly Cloudy,40,2013-11-19 12:35:00
6:55 AM,75.2,71.6,89,29.96,7.0,NNE,18.4,26.5,N/A,,Mostly Cloudy,30,2013-11-19 12:55:00
7:15 AM,75.2,71.6,89,29.97,8.0,NE,24.2,-,N/A,,Scattered Clouds,40,2013-11-19 13:15:00
7:35 AM,75.2,71.6,89,29.98,7.0,NNE,18.4,25.3,N/A,,Mostly Cloudy,30,2013-11-19 13:35:00
7:55 AM,75.2,71.6,89,29.99,7.0,NNE,15.0,25.3,N/A,,Mostly Cloudy,30,2013-11-19 13:55:00
8:15 AM,75.2,69.8,83,29.99,7.0,NNE,19.6,-,N/A,,Mostly Cloudy,30,2013-11-19 14:15:00
8:35 AM,75.2,69.8,83,30.00,-9999.0,NE,21.9,-,N/A,,Overcast,40,2013-11-19 14:35:00
8:55 AM,75.2,69.8,83,30.00,8.0,NNE,17.3,25.3,N/A,,Mostly Cloudy,30,2013-11-19 14:55:00
9:15 AM,75.2,69.8,83,30.00,9.0,NNE,19.6,-,N/A,,Partly Cloudy,30,2013-11-19 15:15:00
9:35 AM,75.2,69.8,83,30.01,8.0,NE,19.6,-,N/A,,Clear,40,2013-11-19 15:35:00
9:55 AM,77.0,71.6,83,30.01,7.0,NE,19.6,-,N/A,,Clear,40,2013-11-19 15:55:00
10:15 AM,77.0,71.6,83,30.01,6.0,NNE,18.4,-,N/A,,Haze,30,2013-11-19 16:15:00
10:35 AM,75.2,69.8,83,30.00,7.0,NNE,19.6,26.5,N/A,,Clear,30,2013-11-19 16:35:00
10:55 AM,75.2,71.6,89,30.00,7.0,NNE,18.4,25.3,N/A,,Clear,30,2013-11-19 16:55:00
11:15 AM,75.2,69.8,83,30.00,6.0,NNE,15.0,24.2,N/A,,Haze,30,2013-11-19 17:15:00
11:35 AM,75.2,69.8,83,29.99,6.0,NNE,11.5,23.0,N/A,,Haze,20,2013-11-19 17:35:00
11:55 AM,75.2,69.8,83,29.98,7.0,NNE,13.8,-,N/A,,Scattered Clouds,30,2013-11-19 17:55:00
12:15 PM,75.2,69.8,83,29.97,7.0,NNE,13.8,23.0,N/A,,Clear,20,2013-11-19 18:15:00
12:35 PM,75.2,69.8,83,29.96,7.0,NNE,12.7,19.6,N/A,,Partly Cloudy,20,2013-11-19 18:35:00
12:55 PM,75.2,69.8,83,29.96,7.0,NNE,11.5,19.6,N/A,,Clear,20,2013-11-19 18:55:00
1:15 PM,75.2,69.8,83,29.95,7.0,NNE,13.8,23.0,N/A,,Mostly Cloudy,30,2013-11-19 19:15:00
1:35 PM,75.2,69.8,83,29.94,7.0,NE,18.4,-,N/A,,Mostly Cloudy,40,2013-11-19 19:35:00
1:55 PM,75.2,69.8,83,29.94,8.0,NNE,17.3,-,N/A,,Mostly Cloudy,30,2013-11-19 19:55:00
2:15 PM,75.2,69.8,83,29.93,8.0,NNE,18.4,-,N/A,,Mostly Cloudy,30,2013-11-19 20:15:00
2:35 PM,75.2,69.8,83,29.92,7.0,NE,21.9,-,N/A,,Mostly Cloudy,40,2013-11-19 20:35:00
2:55 PM,75.2,69.8,83,29.91,7.0,NE,20.7,-,N/A,,Mostly Cloudy,40,2013-11-19 20:55:00
3:15 PM,75.2,69.8,83,29.92,7.0,NNE,19.6,26.5,N/A,,Scattered Clouds,30,2013-11-19 21:15:00
3:35 PM,75.2,69.8,83,29.91,7.0,NE,19.6,-,N/A,,Partly Cloudy,40,2013-11-19 21:35:00
3:55 PM,75.2,69.8,83,29.91,7.0,NE,21.9,-,N/A,,Partly Cloudy,40,2013-11-19 21:55:00
4:15 PM,75.2,69.8,83,29.91,7.0,NE,21.9,-,N/A,,Scattered Clouds,40,2013-11-19 22:15:00
4:35 PM,75.2,69.8,83,29.92,6.0,NE,21.9,-,N/A,,Haze,40,2013-11-19 22:35:00
4:55 PM,75.2,69.8,83,29.92,6.0,NE,23.0,-,N/A,,Haze,40,2013-11-19 22:55:00
5:15 PM,75.2,69.8,83,29.92,7.0,NE,25.3,-,N/A,,Scattered Clouds,40,2013-11-19 23:15:00
5:35 PM,75.2,69.8,83,29.92,7.0,NE,25.3,-,N/A,,Partly Cloudy,40,2013-11-19 23:35:00
5:55 PM,75.2,69.8,83,29.92,7.0,NE,29.9,-,N/A,,Scattered Clouds,40,2013-11-19 23:55:00
6:15 PM,75.2,69.8,83,29.92,10.0,NE,26.5,-,N/A,,Mostly Cloudy,40,2013-11-20 00:15:00
6:35 PM,75.2,69.8,83,29.92,10.0,NE,29.9,-,N/A,,Mostly Cloudy,40,2013-11-20 00:35:00
6:55 PM,75.2,69.8,83,29.93,9.0,NE,27.6,-,N/A,,Mostly Cloudy,40,2013-11-20 00:55:00
7:15 PM,75.2,69.8,83,29.93,8.0,NE,27.6,-,N/A,,Mostly Cloudy,40,2013-11-20 01:15:00
7:35 PM,75.2,69.8,83,29.94,9.0,NE,25.3,-,N/A,,Mostly Cloudy,40,2013-11-20 01:35:00
7:55 PM,75.2,69.8,83,29.94,9.0,NE,26.5,-,N/A,,Mostly Cloudy,40,2013-11-20 01:55:00
8:15 PM,75.2,69.8,83,29.94,10.0,NE,24.2,-,N/A,,Mostly Cloudy,40,2013-11-20 02:15:00
8:35 PM,75.2,69.8,83,29.94,10.0,NE,24.2,-,N/A,,Mostly Cloudy,40,2013-11-20 02:35:00
8:55 PM,75.2,69.8,83,29.94,10.0,NE,24.2,-,N/A,,Mostly Cloudy,40,2013-11-20 02:55:00
9:15 PM,75.2,69.8,83,29.94,10.0,NE,24.2,-,N/A,,Overcast,50,2013-11-20 03:15:00
9:35 PM,75.2,69.8,83,29.94,10.0,NE,25.3,-,N/A,,Mostly Cloudy,50,2013-11-20 03:35:00
9:55 PM,75.2,69.8,83,29.94,-9999.0,NE,23.0,-,N/A,,Overcast,50,2013-11-20 03:55:00
10:15 PM,75.2,69.8,83,29.94,9.0,NE,25.3,-,N/A,,Mostly Cloudy,50,2013-11-20 04:15:00
10:35 PM,75.2,69.8,83,29.93,9.0,NE,26.5,-,N/A,,Overcast,50,2013-11-20 04:35:00
10:55 PM,75.2,69.8,83,29.94,8.0,NE,24.2,29.9,N/A,,Mostly Cloudy,50,2013-11-20 04:55:00
11:15 PM,75.2,69.8,83,29.94,9.0,NE,25.3,-,N/A,,Overcast,50,2013-11-20 05:15:00
11:35 PM,75.2,69.8,83,29.94,9.0,NE,25.3,-,N/A,,Overcast,50,2013-11-20 05:35:00
11:55 PM,75.2,69.8,83,29.94,8.0,NE,25.3,-,N/A,,Overcast,50,2013-11-20 05:55:00